Location: downtown San Diego
(32.7310°N, 117.1990°W)
Time: 20:07:26
(UTC-08:00)

Cosmos 1455 Rocket - Pass Details

Date: 19 May 2017
Orbit: 606 x 629 km, 82.5° (Epoch: 24 November)

Event Time Altitude Azimuth Distance (km) Brightness Sun altitude
Rises 21:18:21 0° 355° (N) 2,892 7.2 -17.7°
Reaches altitude 10° 21:20:35 10° 357° (N) 1,980 6.2 -18.1°
Maximum altitude 21:24:58 78° 83° (E) 630 2.9 -18.8°
Enters shadow 21:26:33 39° 163° (SSE) 925 3.5 -19.0°
